Temperature
23 23 23 22 22 22 22 22 21 23 23 24 25 25 24 23 22 21 20 18 17 16 15 15 15 15 15 15 15 16 16 16 15 14 13 13 12 12 13 13 13 13 14 14
21 22 22 22 22 22 21 22 22 22 23 25 25 24 23 23 22 21 21 20 18 17 16 15 15 15 15 15 15 15 15 15 15 14 12 12 12 12 12 12 13 13 13 14
19 19 19 19 22 22 22 23 23 22 24 25 24 24 23 23 21 20 20 19 18 17 16 15 15 15 15 15 15 15 14 14 14 13 12 12 12 12 12 12 12 13 13 14
17 17 16 20 24 24 23 24 24 23 24 24 24 22 21 19 20 20 19 17 17 16 16 16 16 15 15 15 14 14 14 13 13 12 12 11 12 12 12 12 12 13 13 14
19 19 21 24 23 24 23 24 25 25 24 23 21 21 21 19 18 17 16 16 16 16 15 15 15 15 15 14 13 13 13 13 13 12 11 11 11 11 11 12 12 12 12 13
20 21 21 23 24 23 23 24 25 24 24 22 22 24 23 18 17 16 16 15 15 15 14 14 14 14 13 13 13 13 13 12 12 12 11 11 11 11 11 12 12 12 12 12
20 21 23 23 22 22 23 22 24 23 23 23 23 22 20 17 16 15 15 15 14 13 13 13 13 13 13 12 12 12 12 12 11 11 11 11 11 11 11 12 12 12 12 12
21 21 21 23 22 22 24 24 23 22 22 22 21 18 17 16 15 14 14 14 14 13 13 13 13 12 13 12 11 11 11 11 11 11 11 11 11 11 11 12 12 12 12 12
23 24 24 23 23 23 23 22 22 22 22 21 19 18 16 16 15 14 14 13 13 12 12 12 12 12 11 11 10 10 10 10 10 10 11 10 11 11 11 11 12 11 11 11
23 23 24 23 22 21 21 21 21 21 20 19 19 18 16 16 15 14 14 13 13 13 13 12 11 11 11 10 10 10 10 10 10 10 10 11 11 11 11 12 11 11 11 11
23 24 23 22 22 21 21 20 19 19 19 19 18 17 17 16 15 15 14 14 14 13 13 12 11 11 10 10 10 10 10 9 9 10 10 10 10 10 11 11 11 11 11 11
24 24 24 23 22 20 20 20 19 19 18 18 18 17 16 16 15 15 14 14 14 13 12 12 11 11 10 10 10 10 10 10 10 10 10 10 11 11 11 11 11 11 11 11
23 23 21 21 20 20 20 19 19 19 18 18 17 17 16 16 16 15 15 15 14 13 13 12 11 11 10 10 10 10 10 10 10 10 11 11 11 11 11 11 11 10 11 10
22 21 21 22 21 20 19 19 19 19 18 18 17 17 17 16 16 15 15 15 14 14 13 12 11 10 10 10 10 11 11 11 11 11 11 11 11 11 10 10 10 10 10 10
21 20 20 21 20 19 19 19 18 18 18 18 18 17 17 17 16 16 16 15 15 14 13 12 12 11 11 11 10 11 11 11 11 11 11 11 11 10 10 10 10 10 10 9
21 20 20 20 20 20 19 18 19 19 19 19 18 18 18 17 17 17 17 16 15 14 13 12 12 11 11 11 10 10 10 10 10 11 11 11 11 11 10 10 10 10 10 10
21 20 20 19 20 20 20 19 19 19 19 19 18 18 18 17 17 17 16 16 14 13 13 12 11 12 11 10 10 10 10 10 10 10 10 10 10 10 10 10 10 10 10 9
20 20 20 20 20 21 20 20 19 19 19 19 19 18 18 18 17 16 16 15 14 13 12 11 11 11 11 10 10 10 10 10 10 10 10 10 10 10 10 10 10 10 9 9
19 19 18 19 19 20 20 20 19 19 19 19 19 19 18 18 17 16 15 14 13 12 12 12 11 11 10 10 10 9 9 10 10 10 10 10 10 10 10 10 10 10 10 10
18 19 19 19 19 18 18 19 19 19 19 19 18 18 18 18 17 16 15 14 13 12 12 12 11 10 10 10 9 9 9 9 10 10 10 10 10 10 10 10 10 10 10 10
19 19 19 20 20 19 18 18 18 18 18 19 19 18 18 18 17 16 14 13 13 13 12 12 11 11 10 9 9 9 9 10 10 10 10 10 10 10 10 10 10 10 10 10
19 19 20 20 19 19 18 18 18 18 18 19 19 18 18 17 16 15 14 13 14 13 12 12 11 11 10 9 9 10 10 10 10 10 10 10 10 10 10 10 10 10 10 10
19 19 19 20 19 18 18 18 19 19 19 20 19 19 18 16 15 15 14 14 13 13 12 11 11 11 10 9 9 9 9 9 9 9 9 9 9 10 10 10 10 10 10 10
18 18 19 19 18 18 18 18 19 19 19 20 19 19 17 16 14 14 14 14 13 12 12 11 11 10 10 9 8 8 8 8 8 9 9 9 9 9 9 9 9 9 9 9
17 18 18 18 18 18 18 19 19 19 19 19 19 17 16 15 15 14 14 13 13 12 11 11 10 10 9 9 8 8 8 8 8 8 8 8 9 9 9 9 9 9 9 9
17 17 17 17 18 18 19 19 19 18 19 18 17 15 14 14 14 14 14 13 12 11 11 10 10 9 8 8 8 8 8 8 8 8 8 8 9 9 9 9 9 9 8 8
16 17 17 17 18 19 19 19 19 19 18 18 16 14 14 14 14 14 13 13 12 11 10 9 9 9 8 8 8 8 8 8 8 8 8 9 9 9 9 9 8 8 8 8
Wind_Speed
17 17 16 16 17 14 15 16 15 15 17 17 17 12 8 3 4 5 6 8 11 13 13 13 14 14 14 13 11 10 8 6 5 5 6 5 5 5 6 7 8 7 8 10
15 16 16 18 18 18 17 18 18 19 20 18 14 9 7 5 4 4 6 7 10 13 15 15 15 15 14 13 12 11 9 7 6 6 6 5 5 6 5 6 8 7 8 8
5 5 4 7 13 17 18 16 15 16 15 13 9 8 7 4 3 2 2 3 5 9 13 16 16 17 16 15 13 12 11 9 8 8 7 6 5 5 4 5 6 8 8 6
2 3 3 7 5 4 9 12 11 12 14 14 11 6 3 2 2 2 2 2 2 2 6 11 14 16 16 15 13 12 10 9 8 7 7 6 6 6 5 4 5 6 7 8
3 5 5 3 5 3 4 6 3 5 7 5 2 5 6 4 1 1 2 3 4 3 0 4 9 11 13 13 12 10 9 9 7 7 6 7 7 8 7 6 5 6 6 8
4 4 2 6 5 0 4 2 3 3 3 2 5 3 3 7 6 5 5 5 5 5 4 3 3 6 9 11 11 10 9 8 6 6 6 7 8 9 9 8 8 8 8 9
9 5 3 2 1 2 4 3 5 4 3 7 5 3 6 9 9 8 7 6 5 6 6 6 4 5 8 10 10 9 8 7 6 7 8 9 8 6 7 8 8 9 10 10
6 5 3 5 4 4 8 7 7 7 6 7 5 4 8 9 9 9 7 6 4 5 5 4 3 1 1 2 3 4 6 7 8 8 7 8 8 7 6 7 8 9 9 9
3 3 3 5 9 11 10 11 11 10 9 7 7 8 9 9 9 8 8 6 5 4 4 4 3 2 1 0 2 4 7 8 8 8 8 7 8 8 8 8 8 8 8 8
4 7 9 9 11 13 11 10 11 11 10 9 9 9 10 10 9 8 8 6 6 5 4 4 3 1 2 3 3 4 6 7 7 7 7 8 7 6 5 6 8 9 8 7
7 10 9 9 8 8 7 7 7 6 8 10 10 10 10 10 10 9 8 7 6 5 4 4 3 1 2 3 5 6 5 6 8 7 7 8 8 6 7 7 6 6 7 7
9 10 10 10 7 4 7 7 6 6 8 10 10 10 11 10 9 9 8 8 7 6 5 4 3 2 2 3 4 4 6 8 6 6 7 6 6 4 0 2 4 2 3 5
14 10 8 11 8 8 8 8 6 8 10 12 11 11 11 10 10 9 9 9 8 6 4 4 3 3 2 1 3 3 4 4 4 5 5 4 6 6 5 3 3 4 3 3
14 10 11 12 6 4 5 6 5 7 11 12 12 12 12 11 10 10 10 8 6 4 4 4 3 3 2 3 3 4 4 3 3 3 3 5 6 6 5 6 6 5 4 3
16 14 14 12 9 8 7 7 7 10 14 13 13 13 13 12 11 10 8 6 6 6 5 4 3 2 2 3 4 4 3 3 4 4 4 4 4 4 3 4 4 3 3 3
14 12 12 13 13 9 7 7 10 14 15 15 14 14 13 11 9 8 8 8 8 7 6 5 3 1 1 1 3 3 3 2 2 4 5 5 5 5 5 4 4 5 4 3
15 16 15 14 14 12 9 7 10 14 16 15 15 14 11 9 8 9 9 10 8 6 6 5 3 3 3 1 1 1 1 1 3 3 5 6 6 5 4 4 4 4 4 4
22 21 18 17 16 15 13 10 11 14 16 16 14 12 11 11 10 10 11 11 9 7 6 5 5 4 4 2 1 0 1 2 3 3 2 1 2 3 3 3 3 3 3 4
17 17 16 15 16 16 15 12 12 14 15 15 14 13 11 10 9 10 12 12 10 8 7 7 7 4 3 2 1 1 2 3 3 3 3 4 4 4 3 4 4 4 4 5
13 13 12 12 13 15 15 14 12 12 14 15 14 12 10 9 10 12 13 10 7 5 7 8 6 4 3 3 2 3 3 2 2 3 4 4 4 3 3 3 4 5 4 4
10 9 9 10 10 11 13 13 12 12 13 14 14 12 10 10 12 13 11 9 8 8 8 8 5 5 4 4 3 3 3 3 3 3 3 3 2 3 3 3 3 4 3 4
8 8 7 7 8 9 11 12 11 12 13 13 12 11 12 13 14 12 9 7 10 11 9 7 6 6 6 5 4 4 3 3 3 2 2 2 2 3 3 3 3 3 3 3
8 8 7 7 8 10 12 12 12 13 14 14 13 13 13 13 13 11 9 9 11 10 8 7 9 10 8 5 5 4 3 3 2 2 2 2 2 2 2 2 2 2 3 3
7 7 7 7 9 12 13 12 11 11 12 12 12 13 14 13 10 7 9 12 14 12 9 11 12 11 8 6 5 4 3 2 1 2 1 1 1 2 2 2 2 3 3 3
4 6 8 11 12 11 12 13 13 13 13 11 12 13 12 11 11 11 12 13 14 12 11 12 13 10 6 5 5 4 3 2 1 2 2 2 1 1 2 3 3 3 3 2
3 5 7 9 9 10 11 12 11 12 12 12 11 12 11 10 12 12 12 14 14 11 10 10 10 8 6 5 6 5 4 3 2 1 1 1 2 2 2 2 3 2 2 2
1 3 6 7 8 9 10 11 11 11 12 13 13 13 13 12 12 12 13 12 11 10 9 8 8 7 6 6 6 5 5 4 3 2 1 1 1 1 1 2 2 2 1 0
Wind_Direction
267 275 272 266 261 240 236 244 262 273 276 278 288 303 299 269 203 203 208 200 199 201 203 207 210 209 211 206 192 191 196 208 225 219 206 212 228 244 254 256 250 235 228 214
262 259 253 254 250 245 243 253 263 268 274 279 281 275 262 239 205 225 224 215 210 210 209 211 210 207 208 208 201 196 201 210 215 221 210 215 232 247 252 248 244 225 220 208
287 342 3 267 246 238 235 240 252 264 279 291 291 258 254 243 199 185 202 231 232 224 217 214 212 208 209 208 202 202 208 213 217 215 212 215 223 235 242 239 228 219 208 197
198 222 221 201 222 221 230 245 244 262 285 288 282 263 235 204 218 261 310 328 328 274 227 219 215 210 211 205 201 206 214 220 218 223 222 224 226 230 231 228 219 211 204 201
203 220 260 180 155 168 249 274 232 272 306 322 248 208 209 186 179 21 42 52 50 42 182 211 213 207 209 199 199 202 218 224 207 209 221 237 233 228 221 210 210 207 206 202
243 264 242 133 134 265 279 224 99 319 308 182 183 250 108 142 144 126 104 88 82 81 85 107 160 186 197 201 203 206 217 220 212 219 229 233 234 229 216 204 210 206 203 211
247 264 276 57 130 203 254 44 12 311 265 210 241 15 115 140 137 129 122 114 105 95 88 86 107 159 193 202 211 210 213 221 222 232 238 234 232 234 213 198 205 215 208 207
227 250 259 140 165 236 306 328 316 297 276 244 239 150 151 151 147 148 147 137 126 115 105 91 75 71 193 225 230 212 215 223 227 235 243 240 229 216 202 198 209 216 215 210
222 272 309 250 271 287 291 288 292 282 265 232 206 188 173 166 162 162 159 154 156 149 137 119 93 54 356 264 222 221 218 219 226 237 240 238 234 223 206 203 212 214 215 214
217 253 270 281 274 273 278 275 288 280 249 213 198 186 179 176 172 171 172 172 175 179 178 155 144 171 272 276 271 256 245 232 231 239 248 237 226 220 210 214 222 215 210 220
244 278 287 276 264 272 283 279 279 255 224 208 190 180 181 181 181 181 180 187 195 204 212 192 171 224 256 260 249 230 230 228 241 238 239 247 239 224 219 218 230 238 226 228
266 295 311 303 309 283 273 276 260 226 212 199 186 178 179 181 181 185 192 200 211 223 232 226 229 280 284 236 218 228 219 222 234 259 255 250 246 222 36 238 206 241 322 307
270 296 294 286 296 278 277 281 255 226 203 185 181 177 181 182 181 187 200 210 222 226 223 228 231 267 294 274 239 274 279 275 269 259 251 216 204 204 187 172 194 204 208 230
260 268 274 280 287 293 285 275 249 219 192 183 179 178 184 187 184 197 208 215 216 202 193 198 220 255 271 282 288 297 299 265 236 178 186 201 201 196 197 191 192 185 180 187
254 243 255 278 275 275 280 260 226 192 180 182 182 184 191 197 200 206 208 197 185 185 180 180 195 241 266 287 297 302 279 219 196 172 178 181 194 182 189 207 217 196 179 158
254 243 243 250 253 257 265 241 214 190 185 185 187 195 202 208 205 198 190 183 181 183 182 184 196 158 247 289 292 262 218 232 221 177 170 176 190 192 203 197 199 192 199 174
246 250 253 245 237 236 233 217 212 200 191 190 195 198 199 195 195 193 184 183 181 165 167 172 151 137 145 138 119 256 182 210 247 207 185 186 198 196 215 180 183 195 184 168
258 260 261 255 247 240 231 218 209 205 199 197 196 193 194 196 198 192 179 172 165 158 164 161 144 145 151 150 128 199 220 208 236 230 171 191 212 160 174 168 168 182 156 161
249 249 249 248 245 243 238 225 211 209 204 196 194 197 198 199 193 179 169 170 174 177 174 164 139 164 175 158 253 219 233 236 234 218 181 184 181 158 169 155 156 164 164 167
235 233 233 235 234 235 234 226 215 207 202 192 195 194 191 182 172 165 166 170 172 163 153 155 164 159 142 134 182 200 181 199 210 178 178 184 183 177 178 178 171 168 172 183
215 219 228 234 231 223 216 204 197 197 192 188 189 190 181 165 161 159 162 163 156 144 141 149 158 138 133 137 152 171 163 143 151 164 173 188 195 200 188 195 190 176 183 191
230 234 238 237 219 200 192 188 186 186 181 178 177 170 160 156 154 153 154 154 148 152 149 149 145 134 141 158 163 156 138 132 133 138 154 196 206 196 195 200 204 193 197 204
235 234 235 221 198 178 169 173 173 173 172 166 165 163 158 154 153 152 151 147 148 154 147 136 129 138 155 165 151 150 148 154 163 163 168 187 197 206 207 210 214 229 233 226
227 223 217 191 172 164 161 161 159 158 154 150 155 154 151 146 141 138 134 140 141 144 140 137 142 153 177 155 141 131 123 120 124 121 156 248 246 223 212 223 225 224 232 246
212 194 179 171 169 164 150 146 142 141 138 140 143 147 149 145 139 140 141 142 145 150 145 150 155 166 183 160 144 146 147 141 89 73 79 81 97 221 264 273 277 284 276 259
211 175 168 170 162 148 147 149 146 145 142 139 143 144 138 133 133 140 141 146 152 155 153 159 167 179 179 163 149 157 164 163 172 224 20 37 32 17 349 329 318 312 301 318
211 156 155 154 152 152 151 149 148 150 152 148 145 144 140 140 141 143 145 150 154 159 161 166 166 176 173 165 169 177 186 189 179 198 222 248 268 300 342 348 339 304 272 290
Height
1485 1485 1487 1490 1488 1488 1490 1487 1490 1484 1481 1477 1473 1473 1474 1475 1477 1478 1479 1481 1482 1483 1484 1485 1487 1488 1489 1492 1493 1496 1498 1501 1502 1503 1503 1504 1505 1505 1506 1507 1508 1508 1509 1511
1490 1484 1483 1485 1483 1484 1486 1485 1481 1480 1476 1470 1469 1471 1471 1471 1473 1474 1475 1477 1479 1480 1481 1482 1483 1484 1486 1488 1491 1493 1495 1497 1498 1499 1500 1500 1501 1502 1503 1503 1504 1504 1506 1507
1496 1493 1493 1495 1478 1478 1478 1476 1477 1477 1469 1465 1466 1468 1468 1469 1471 1472 1473 1474 1475 1476 1477 1478 1480 1481 1483 1486 1489 1491 1493 1494 1496 1496 1497 1498 1498 1499 1499 1499 1500 1501 1502 1502
1502 1503 1510 1487 1469 1468 1471 1470 1468 1468 1466 1464 1464 1466 1467 1468 1469 1471 1472 1472 1472 1472 1473 1475 1477 1478 1481 1484 1486 1488 1490 1492 1493 1493 1494 1495 1495 1496 1496 1497 1497 1498 1500 1501
1492 1493 1480 1467 1468 1469 1468 1465 1460 1462 1461 1462 1463 1464 1464 1466 1467 1469 1470 1470 1469 1469 1470 1471 1473 1476 1478 1480 1482 1483 1486 1488 1488 1489 1489 1491 1492 1492 1494 1495 1496 1496 1497 1499
1486 1482 1481 1467 1464 1466 1467 1462 1460 1461 1461 1462 1462 1457 1459 1464 1465 1467 1468 1468 1468 1469 1469 1470 1470 1472 1474 1477 1479 1480 1483 1484 1484 1485 1486 1486 1488 1489 1490 1492 1493 1494 1496 1498
1484 1478 1467 1461 1464 1467 1469 1468 1461 1461 1460 1460 1459 1459 1461 1462 1464 1466 1467 1467 1468 1469 1469 1468 1469 1470 1471 1474 1475 1477 1478 1479 1480 1481 1482 1483 1484 1485 1486 1488 1490 1492 1494 1496
1473 1477 1475 1461 1463 1465 1458 1457 1460 1459 1458 1458 1458 1459 1460 1461 1463 1465 1466 1467 1468 1468 1468 1468 1468 1469 1471 1471 1472 1472 1473 1475 1476 1477 1478 1479 1480 1482 1483 1485 1487 1489 1491 1493
1460 1459 1455 1457 1457 1456 1456 1456 1456 1456 1455 1455 1456 1458 1459 1460 1462 1464 1465 1466 1467 1467 1467 1467 1467 1468 1469 1469 1469 1469 1470 1471 1472 1474 1475 1475 1476 1478 1480 1481 1483 1484 1486 1488
1457 1454 1452 1454 1454 1453 1453 1452 1452 1450 1450 1451 1452 1455 1457 1459 1461 1463 1464 1465 1466 1466 1467 1467 1466 1466 1466 1466 1465 1465 1466 1467 1469 1470 1471 1472 1472 1474 1475 1477 1478 1480 1481 1483
1451 1449 1449 1449 1449 1449 1449 1448 1447 1445 1446 1448 1450 1452 1455 1458 1460 1462 1463 1463 1464 1465 1465 1465 1464 1463 1463 1462 1460 1460 1461 1462 1464 1466 1467 1468 1470 1471 1472 1472 1474 1477 1479 1481
1445 1443 1444 1445 1445 1445 1445 1445 1444 1444 1444 1445 1448 1450 1453 1456 1458 1459 1461 1462 1462 1463 1463 1463 1462 1462 1461 1459 1458 1458 1459 1460 1461 1462 1463 1464 1465 1467 1468 1470 1471 1473 1475 1477
1442 1442 1443 1441 1442 1441 1441 1440 1440 1440 1442 1444 1446 1448 1451 1454 1456 1457 1459 1460 1460 1460 1460 1460 1459 1459 1458 1457 1457 1457 1457 1457 1456 1457 1458 1459 1461 1463 1465 1467 1468 1469 1471 1473
1439 1440 1439 1438 1438 1438 1437 1436 1436 1437 1439 1442 1444 1447 1449 1452 1454 1455 1457 1457 1457 1457 1457 1457 1457 1456 1456 1456 1456 1455 1454 1454 1454 1455 1456 1458 1460 1462 1464 1465 1466 1467 1469 1469
1434 1435 1434 1434 1434 1434 1434 1433 1433 1434 1437 1440 1442 1445 1447 1449 1451 1453 1454 1454 1454 1454 1455 1455 1455 1455 1454 1454 1454 1453 1453 1453 1454 1454 1456 1458 1459 1461 1462 1463 1464 1465 1467 1467
1428 1429 1429 1429 1429 1429 1429 1429 1430 1432 1434 1437 1440 1443 1445 1447 1449 1449 1450 1451 1452 1452 1453 1453 1454 1453 1453 1452 1452 1452 1452 1453 1454 1454 1456 1457 1458 1460 1462 1462 1463 1464 1465 1465
1422 1422 1423 1423 1423 1423 1425 1426 1428 1430 1432 1434 1437 1440 1442 1444 1445 1446 1447 1448 1449 1450 1451 1452 1452 1452 1452 1451 1451 1452 1452 1453 1454 1455 1456 1457 1458 1459 1461 1461 1461 1462 1463 1464
1413 1413 1415 1415 1416 1417 1419 1421 1423 1426 1428 1431 1434 1437 1439 1440 1442 1443 1444 1446 1447 1449 1450 1450 1451 1451 1451 1451 1452 1452 1452 1452 1453 1454 1455 1456 1457 1458 1459 1460 1460 1460 1462 1463
1404 1404 1406 1406 1408 1410 1412 1415 1417 1420 1424 1427 1430 1433 1435 1437 1438 1440 1441 1444 1446 1448 1449 1449 1449 1450 1450 1450 1451 1451 1451 1452 1452 1453 1454 1455 1457 1457 1458 1459 1460 1460 1461 1462
1396 1396 1397 1399 1400 1401 1404 1408 1412 1415 1418 1422 1426 1429 1431 1433 1435 1437 1439 1443 1445 1446 1446 1447 1448 1448 1448 1448 1449 1450 1451 1451 1451 1452 1453 1455 1456 1457 1458 1459 1460 1460 1461 1462
1390 1391 1392 1392 1392 1394 1397 1402 1406 1409 1413 1417 1421 1425 1428 1429 1431 1434 1438 1441 1442 1443 1444 1445 1446 1446 1446 1447 1449 1450 1452 1452 1452 1452 1453 1454 1455 1456 1457 1458 1460 1460 1461 1461
1386 1387 1387 1387 1387 1389 1393 1397 1401 1405 1409 1413 1417 1421 1424 1426 1429 1433 1436 1439 1439 1440 1442 1444 1445 1445 1446 1447 1450 1451 1452 1452 1452 1453 1453 1453 1454 1455 1456 1457 1458 1459 1460 1460
1380 1382 1383 1383 1385 1387 1391 1395 1399 1402 1406 1410 1414 1417 1420 1423 1427 1431 1434 1436 1437 1439 1441 1443 1444 1445 1447 1448 1450 1451 1452 1452 1452 1452 1452 1452 1453 1454 1455 1456 1457 1458 1458 1458
1375 1377 1378 1380 1383 1386 1390 1393 1397 1401 1404 1408 1411 1414 1418 1421 1426 1430 1432 1434 1436 1438 1440 1442 1444 1445 1447 1449 1450 1451 1452 1452 1451 1451 1450 1450 1451 1452 1453 1454 1454 1455 1455 1455
1372 1374 1375 1377 1381 1385 1388 1391 1395 1399 1403 1406 1410 1413 1418 1422 1426 1428 1431 1433 1436 1438 1440 1441 1443 1445 1447 1449 1450 1451 1452 1452 1452 1452 1451 1451 1450 1450 1451 1452 1452 1452 1451 1451
1371 1372 1373 1377 1381 1383 1386 1390 1394 1398 1402 1405 1409 1413 1418 1422 1425 1428 1430 1433 1435 1437 1439 1441 1443 1444 1446 1449 1450 1450 1451 1452 1452 1452 1452 1452 1451 1451 1451 1450 1450 1448 1448 1448
1369 1370 1373 1376 1379 1382 1386 1390 1393 1397 1401 1404 1408 1412 1416 1421 1424 1427 1430 1432 1434 1437 1439 1441 1442 1443 1445 1447 1448 1449 1451 1451 1451 1451 1451 1450 1450 1450 1449 1448 1447 1446 1446 1446